| time (UTC) | temp F | wind direction | speed MPH | gust MPH | rain 1hr in | rain 24hr in | rain mn in | humidity % | barometer mb |
| 20260505032022 | 81 | 107 | 22.0 | 30.0 | 0.00 | 0.00 | 0.00 | 82 | 1011.8 |
| 20260505031519 | 81 | 128 | 31.0 | 43.0 | 0.00 | 0.00 | 0.00 | 82 | 1011.7 |
| 20260505031015 | 81 | 145 | 28.0 | 38.0 | 0.00 | 0.00 | 0.00 | 82 | 1011.8 |
| 20260505030512 | 81 | 107 | 22.0 | 33.0 | 0.00 | 0.00 | 0.00 | 82 | 1011.6 |
| 20260505030008 | 81 | 114 | 21.0 | 45.0 | 0.00 | 0.00 | 0.00 | 82 | 1011.7 |
| 20260505025504 | 81 | 122 | 25.0 | 40.0 | 0.00 | 0.00 | 0.00 | 82 | 1011.6 |
| 20260505025004 | 81 | 118 | 20.0 | 33.0 | 0.00 | 0.00 | 0.00 | 82 | 1011.7 |
| 20260505024500 | 81 | 112 | 30.0 | 43.0 | 0.00 | 0.00 | 0.00 | 81 | 1011.8 |
| 20260505023957 | 81 | 108 | 27.0 | 38.0 | 0.00 | 0.00 | 0.00 | 81 | 1011.6 |
| 20260505023454 | 81 | 137 | 16.0 | 30.0 | 0.00 | 0.00 | 0.00 | 82 | 1011.7 |
| 20260505022952 | 81 | 103 | 25.0 | 40.0 | 0.00 | 0.00 | 0.00 | 81 | 1011.6 |
| 20260505022449 | 81 | 120 | 25.0 | 38.0 | 0.00 | 0.00 | 0.00 | 81 | 1011.5 |
| 20260505021946 | 81 | 108 | 18.0 | 30.0 | 0.00 | 0.00 | 0.00 | 81 | 1011.5 |
| 20260505021442 | 81 | 129 | 19.0 | 33.0 | 0.00 | 0.00 | 0.00 | 81 | 1011.4 |
| 20260505020938 | 81 | 109 | 26.0 | 33.0 | 0.00 | 0.00 | 0.00 | 80 | 1011.5 |
| 20260505020433 | 81 | 119 | 24.0 | 38.0 | 0.00 | 0.00 | 0.00 | 80 | 1011.3 |
| 20260505015931 | 81 | 184 | 24.0 | 33.0 | 0.00 | 0.00 | 0.00 | 80 | 1011.4 |
| 20260505015428 | 81 | 102 | 27.0 | 33.0 | 0.00 | 0.00 | 0.00 | 80 | 1011.4 |
| 20260505014925 | 81 | 131 | 29.0 | 35.0 | 0.00 | 0.00 | 0.00 | 80 | 1011.3 |
| 20260505014421 | 81 | 120 | 26.0 | 38.0 | 0.00 | 0.00 | 0.00 | 80 | 1011.1 |
| 20260505013919 | 81 | 114 | 27.0 | 40.0 | 0.00 | 0.00 | 0.00 | 79 | 1011.0 |
| 20260505013416 | 81 | 97 | 28.0 | 48.0 | 0.00 | 0.00 | 0.00 | 79 | 1010.9 |
| 20260505012914 | 81 | 105 | 22.0 | 38.0 | 0.00 | 0.00 | 0.00 | 79 | 1010.9 |
| 20260505012411 | 81 | 125 | 25.0 | 35.0 | 0.00 | 0.00 | 0.00 | 79 | 1010.8 |
| 20260505011907 | 81 | 123 | 28.0 | 38.0 | 0.00 | 0.00 | 0.00 | 79 | 1010.6 |
| 20260505011404 | 81 | 117 | 26.0 | 28.0 | 0.00 | 0.00 | 0.00 | 79 | 1010.6 |
| 20260505010901 | 81 | 111 | 28.0 | 45.0 | 0.00 | 0.00 | 0.00 | 79 | 1010.5 |
| 20260505010356 | 81 | 109 | 28.0 | 38.0 | 0.00 | 0.00 | 0.00 | 79 | 1010.4 |
| 20260505005853 | 81 | 117 | 29.0 | 43.0 | 0.00 | 0.00 | 0.00 | 78 | 1010.6 |
| 20260505005349 | 81 | 136 | 26.0 | 48.0 | 0.00 | 0.00 | 0.00 | 78 | 1010.5 |
| 20260505004847 | 81 | 124 | 32.0 | 43.0 | 0.00 | 0.00 | 0.00 | 78 | 1010.5 |
| 20260505004343 | 81 | 127 | 38.0 | 43.0 | 0.00 | 0.00 | 0.00 | 79 | 1010.4 |
| 20260505003841 | 81 | 113 | 26.0 | 40.0 | 0.00 | 0.00 | 0.00 | 79 | 1010.3 |
| 20260505003338 | 81 | 118 | 31.0 | 45.0 | 0.00 | 0.00 | 0.00 | 78 | 1010.6 |
| 20260505002834 | 81 | 109 | 35.0 | 48.0 | 0.00 | 0.00 | 0.00 | 79 | 1010.3 |
| 20260505002331 | 81 | 110 | 34.0 | 50.0 | 0.00 | 0.00 | 0.00 | 78 | 1010.4 |
| 20260505001829 | 81 | 95 | 36.0 | 40.0 | 0.00 | 0.00 | 0.00 | 78 | 1010.4 |
| 20260505001326 | 81 | 100 | 20.0 | 38.0 | 0.00 | 0.00 | 0.00 | 78 | 1010.4 |
| 20260505000823 | 81 | 138 | 32.0 | 40.0 | 0.00 | 0.00 | 0.00 | 78 | 1010.3 |
| 20260505000321 | 81 | 124 | 33.0 | 38.0 | 0.00 | 0.00 | 0.00 | 79 | 1010.5 |
| 20260504235817 | 81 | 95 | 28.0 | 43.0 | 0.00 | 0.00 | 0.00 | 79 | 1010.3 |
| 20260504235314 | 82 | 126 | 19.0 | 45.0 | 0.00 | 0.00 | 0.00 | 79 | 1010.3 |
| 20260504234811 | 82 | 102 | 24.0 | 45.0 | 0.00 | 0.00 | 0.00 | 79 | 1010.3 |
| 20260504234309 | 81 | 97 | 30.0 | 45.0 | 0.00 | 0.00 | 0.00 | 79 | 1010.3 |
| 20260504233805 | 82 | 143 | 33.0 | 40.0 | 0.00 | 0.00 | 0.00 | 79 | 1010.0 |
| 20260504233300 | 82 | 105 | 25.0 | 33.0 | 0.00 | 0.00 | 0.00 | 79 | 1010.1 |
| 20260504232758 | 82 | 110 | 27.0 | 35.0 | 0.00 | 0.00 | 0.00 | 79 | 1010.1 |
| 20260504232255 | 82 | 106 | 19.0 | 35.0 | 0.00 | 0.00 | 0.00 | 78 | 1009.9 |
| 20260504231751 | 82 | 121 | 24.0 | 43.0 | 0.00 | 0.00 | 0.00 | 78 | 1010.0 |
| 20260504231248 | 82 | 97 | 21.0 | 40.0 | 0.00 | 0.00 | 0.00 | 78 | 1009.9 |
| 20260504230744 | 82 | 142 | 29.0 | 38.0 | 0.00 | 0.00 | 0.00 | 78 | 1009.9 |
| 20260504230242 | 82 | 115 | 21.0 | 38.0 | 0.00 | 0.00 | 0.00 | 78 | 1009.7 |
| 20260504225741 | 82 | 121 | 27.0 | 40.0 | 0.00 | 0.00 | 0.00 | 78 | 1009.7 |
| 20260504225237 | 82 | 126 | 23.0 | 40.0 | 0.00 | 0.00 | 0.00 | 77 | 1010.0 |
| 20260504224734 | 82 | 98 | 21.0 | 38.0 | 0.00 | 0.00 | 0.00 | 77 | 1009.7 |
| 20260504224231 | 82 | 78 | 19.0 | 30.0 | 0.00 | 0.00 | 0.00 | 77 | 1009.6 |
| 20260504223727 | 82 | 116 | 30.0 | 40.0 | 0.00 | 0.00 | 0.00 | 77 | 1009.5 |
| 20260504223223 | 83 | 105 | 20.0 | 33.0 | 0.00 | 0.00 | 0.00 | 77 | 1009.5 |
| 20260504222720 | 83 | 119 | 21.0 | 40.0 | 0.00 | 0.00 | 0.00 | 76 | 1009.5 |
| 20260504222217 | 83 | 96 | 23.0 | 33.0 | 0.00 | 0.00 | 0.00 | 76 | 1009.6 |
| 20260504221714 | 83 | 115 | 19.0 | 33.0 | 0.00 | 0.00 | 0.00 | 76 | 1009.5 |
| 20260504221211 | 83 | 149 | 18.0 | 43.0 | 0.00 | 0.00 | 0.00 | 76 | 1009.5 |
| 20260504220708 | 83 | 97 | 11.0 | 38.0 | 0.00 | 0.00 | 0.00 | 76 | 1009.2 |
| 20260504220206 | 83 | 101 | 22.0 | 30.0 | 0.00 | 0.00 | 0.00 | 76 | 1009.4 |
| 20260504215702 | 83 | 109 | 20.0 | 30.0 | 0.00 | 0.00 | 0.00 | 76 | 1009.3 |
| 20260504215159 | 83 | 114 | 21.0 | 33.0 | 0.00 | 0.00 | 0.00 | 76 | 1009.1 |
| 20260504214655 | 84 | 134 | 22.0 | 38.0 | 0.00 | 0.00 | 0.00 | 76 | 1009.2 |
| 20260504214151 | 84 | 119 | 30.0 | 48.0 | 0.00 | 0.00 | 0.00 | 75 | 1009.2 |
| 20260504213648 | 84 | 107 | 24.0 | 30.0 | 0.00 | 0.00 | 0.00 | 76 | 1009.3 |
| 20260504213145 | 84 | 130 | 27.0 | 40.0 | 0.00 | 0.00 | 0.00 | 76 | 1009.2 |
| 20260504212641 | 84 | 124 | 27.0 | 35.0 | 0.00 | 0.00 | 0.00 | 75 | 1009.1 |
| 20260504212138 | 84 | 113 | 23.0 | 38.0 | 0.00 | 0.00 | 0.00 | 75 | 1009.0 |
| 20260504211636 | 84 | 128 | 28.0 | 40.0 | 0.00 | 0.00 | 0.00 | 74 | 1009.2 |
| 20260504211132 | 84 | 120 | 21.0 | 35.0 | 0.00 | 0.00 | 0.00 | 75 | 1008.9 |
| 20260504210630 | 84 | 118 | 24.0 | 45.0 | 0.00 | 0.00 | 0.00 | 74 | 1008.9 |
| 20260504210126 | 85 | 115 | 19.0 | 35.0 | 0.00 | 0.00 | 0.00 | 75 | 1009.0 |
| 20260504205623 | 85 | 108 | 22.0 | 43.0 | 0.00 | 0.00 | 0.00 | 74 | 1009.0 |
| 20260504205121 | 85 | 105 | 31.0 | 43.0 | 0.00 | 0.00 | 0.00 | 73 | 1009.3 |
| 20260504204619 | 85 | 137 | 17.0 | 28.0 | 0.00 | 0.00 | 0.00 | 74 | 1009.3 |
| 20260504204118 | 85 | 144 | 25.0 | 35.0 | 0.00 | 0.00 | 0.00 | 74 | 1009.2 |
| 20260504203616 | 85 | 109 | 22.0 | 38.0 | 0.00 | 0.00 | 0.00 | 74 | 1009.2 |
| 20260504203113 | 85 | 124 | 20.0 | 50.0 | 0.00 | 0.00 | 0.00 | 74 | 1009.4 |
| 20260504202608 | 85 | 119 | 31.0 | 45.0 | 0.00 | 0.00 | 0.00 | 73 | 1009.3 |
| 20260504202105 | 85 | 106 | 29.0 | 45.0 | 0.00 | 0.00 | 0.00 | 73 | 1009.3 |
| 20260504201602 | 85 | 145 | 29.0 | 45.0 | 0.00 | 0.00 | 0.00 | 73 | 1009.3 |
| 20260504201100 | 85 | 106 | 32.0 | 43.0 | 0.00 | 0.00 | 0.00 | 74 | 1009.3 |
| 20260504200556 | 85 | 122 | 30.0 | 40.0 | 0.00 | 0.00 | 0.00 | 73 | 1009.5 |
| 20260504200053 | 85 | 115 | 34.0 | 48.0 | 0.00 | 0.00 | 0.00 | 73 | 1009.4 |
| 20260504195549 | 85 | 101 | 24.0 | 50.0 | 0.00 | 0.00 | 0.00 | 73 | 1009.5 |
| 20260504195046 | 86 | 158 | 27.0 | 38.0 | 0.00 | 0.00 | 0.00 | 71 | 1009.5 |
| 20260504194542 | 86 | 133 | 24.0 | 40.0 | 0.00 | 0.00 | 0.00 | 73 | 1009.6 |
| 20260504194038 | 86 | 137 | 28.0 | 40.0 | 0.00 | 0.00 | 0.00 | 73 | 1009.7 |
| 20260504193535 | 86 | 123 | 34.0 | 43.0 | 0.00 | 0.00 | 0.00 | 72 | 1009.6 |
| 20260504193034 | 86 | 156 | 28.0 | 45.0 | 0.00 | 0.00 | 0.00 | 72 | 1009.8 |
| 20260504192531 | 86 | 88 | 28.0 | 38.0 | 0.00 | 0.00 | 0.00 | 72 | 1009.9 |
| 20260504192029 | 86 | 122 | 31.0 | 40.0 | 0.00 | 0.00 | 0.00 | 71 | 1009.9 |
| 20260504191527 | 86 | 131 | 26.0 | 48.0 | 0.00 | 0.00 | 0.00 | 72 | 1010.0 |
| 20260504191023 | 86 | 132 | 29.0 | 43.0 | 0.00 | 0.00 | 0.00 | 72 | 1010.0 |
| 20260504190519 | 86 | 127 | 37.0 | 50.0 | 0.00 | 0.00 | 0.00 | 71 | 1010.1 |
| 20260504190015 | 86 | 99 | 18.0 | 38.0 | 0.00 | 0.00 | 0.00 | 72 | 1010.2 |
| 20260504185512 | 87 | 164 | 20.0 | 35.0 | 0.00 | 0.00 | 0.00 | 72 | 1010.2 |
| 20260504185009 | 87 | 109 | 27.0 | 43.0 | 0.00 | 0.00 | 0.00 | 71 | 1010.0 |
| 20260504184509 | 86 | 107 | 23.0 | 38.0 | 0.00 | 0.00 | 0.00 | 72 | 1010.1 |
| 20260504184005 | 86 | 112 | 32.0 | 45.0 | 0.00 | 0.00 | 0.00 | 72 | 1010.2 |
| 20260504183503 | 87 | 130 | 28.0 | 40.0 | 0.00 | 0.00 | 0.00 | 71 | 1010.5 |
| 20260504183000 | 87 | 126 | 29.0 | 45.0 | 0.00 | 0.00 | 0.00 | 71 | 1010.4 |
| 20260504182457 | 87 | 118 | 23.0 | 33.0 | 0.00 | 0.00 | 0.00 | 70 | 1010.3 |
| 20260504181955 | 87 | 110 | 23.0 | 50.0 | 0.00 | 0.00 | 0.00 | 70 | 1010.5 |
| 20260504181451 | 87 | 113 | 28.0 | 50.0 | 0.00 | 0.00 | 0.00 | 70 | 1010.6 |
| 20260504180950 | 87 | 118 | 27.0 | 33.0 | 0.00 | 0.00 | 0.00 | 69 | 1010.7 |
| 20260504180449 | 87 | 67 | 23.0 | 45.0 | 0.00 | 0.00 | 0.00 | 70 | 1010.8 |
| 20260504175947 | 87 | 128 | 25.0 | 35.0 | 0.00 | 0.00 | 0.00 | 70 | 1010.8 |
| 20260504175443 | 86 | 131 | 30.0 | 40.0 | 0.00 | 0.00 | 0.00 | 71 | 1010.9 |
| 20260504174941 | 87 | 117 | 28.0 | 45.0 | 0.00 | 0.00 | 0.00 | 70 | 1010.9 |
| 20260504174438 | 87 | 127 | 24.0 | 45.0 | 0.00 | 0.00 | 0.00 | 71 | 1011.3 |
| 20260504173936 | 87 | 117 | 37.0 | 45.0 | 0.00 | 0.00 | 0.00 | 70 | 1011.3 |
| 20260504173432 | 86 | 128 | 23.0 | 50.0 | 0.00 | 0.00 | 0.00 | 71 | 1011.2 |
| 20260504172930 | 87 | 115 | 30.0 | 45.0 | 0.00 | 0.00 | 0.00 | 69 | 1011.5 |
| 20260504172425 | 86 | 117 | 27.0 | 40.0 | 0.00 | 0.00 | 0.00 | 71 | 1011.4 |
| 20260504171922 | 86 | 131 | 32.0 | 55.0 | 0.00 | 0.00 | 0.00 | 69 | 1011.5 |
| 20260504171419 | 87 | 107 | 33.0 | 45.0 | 0.00 | 0.00 | 0.00 | 69 | 1011.7 |
| 20260504170916 | 87 | 129 | 33.0 | 45.0 | 0.00 | 0.00 | 0.00 | 69 | 1011.8 |
| 20260504170412 | 87 | 120 | 31.0 | 45.0 | 0.00 | 0.00 | 0.00 | 70 | 1011.9 |
| 20260504160331 | 87 | 112 | 32.0 | 43.0 | 0.00 | 0.00 | 0.00 | 69 | 1012.9 |
| 20260504150756 | 86 | 130 | 31.0 | 43.0 | 0.00 | 0.00 | 0.00 | 69 | 1013.0 |
| 20260504150253 | 86 | 126 | 26.0 | 38.0 | 0.00 | 0.00 | 0.00 | 70 | 1013.3 |
| 20260504141223 | 85 | 106 | 37.0 | 55.0 | 0.00 | 0.00 | 0.00 | 70 | 1013.4 |
| 20260504140719 | 86 | 133 | 28.0 | 45.0 | 0.00 | 0.00 | 0.00 | 69 | 1013.6 |
| 20260504140214 | 85 | 85 | 20.0 | 35.0 | 0.00 | 0.00 | 0.00 | 70 | 1013.2 |
| 20260504130643 | 84 | 130 | 23.0 | 38.0 | 0.00 | 0.00 | 0.00 | 74 | 1013.1 |
| 20260504130140 | 84 | 128 | 24.0 | 40.0 | 0.00 | 0.00 | 0.00 | 74 | 1012.9 |
| 20260504120104 | 82 | 127 | 23.0 | 43.0 | 0.00 | 0.00 | 0.00 | 76 | 1012.7 |
| 20260504110531 | 81 | 104 | 18.0 | 28.0 | 0.00 | 0.00 | 0.00 | 79 | 1012.1 |
| 20260504100453 | 80 | 110 | 14.0 | 25.0 | 0.00 | 0.00 | 0.00 | 78 | 1011.7 |
| 20260504081846 | 80 | 104 | 25.0 | 33.0 | 0.00 | 0.00 | 0.00 | 78 | 1010.5 |
| 20260504081343 | 80 | 110 | 19.0 | 35.0 | 0.00 | 0.00 | 0.00 | 78 | 1010.6 |
| 20260504080839 | 80 | 138 | 21.0 | 38.0 | 0.00 | 0.00 | 0.00 | 77 | 1010.2 |
| 20260504080336 | 80 | 123 | 24.0 | 38.0 | 0.00 | 0.00 | 0.00 | 77 | 1010.4 |
| 20260504070303 | 80 | 109 | 23.0 | 38.0 | 0.00 | 0.00 | 0.00 | 78 | 1010.7 |
| 20260504060224 | 80 | 113 | 19.0 | 38.0 | 0.00 | 0.00 | 0.00 | 79 | 1011.3 |
| 20260504050651 | 80 | 114 | 28.0 | 35.0 | 0.00 | 0.00 | 0.00 | 79 | 1011.7 |
| 20260504050148 | 80 | 127 | 18.0 | 28.0 | 0.00 | 0.00 | 0.00 | 80 | 1011.6 |
| 20260504045646 | 80 | 133 | 19.0 | 33.0 | 0.00 | 0.00 | 0.00 | 80 | 1011.7 |
| 20260504045146 | 80 | 107 | 22.0 | 35.0 | 0.00 | 0.00 | 0.00 | 80 | 1011.7 |
| 20260504044644 | 80 | 98 | 28.0 | 35.0 | 0.00 | 0.00 | 0.00 | 80 | 1011.8 |
| 20260504044140 | 80 | 112 | 23.0 | 40.0 | 0.00 | 0.00 | 0.00 | 80 | 1011.8 |
| 20260504043637 | 80 | 113 | 23.0 | 40.0 | 0.00 | 0.00 | 0.00 | 80 | 1011.9 |
| 20260504043135 | 80 | 126 | 20.0 | 33.0 | 0.00 | 0.00 | 0.00 | 81 | 1011.8 |
| 20260504042632 | 81 | 120 | 17.0 | 35.0 | 0.00 | 0.00 | 0.00 | 81 | 1012.1 |
| 20260504042128 | 81 | 127 | 17.0 | 33.0 | 0.00 | 0.00 | 0.00 | 81 | 1012.2 |
| 20260504041624 | 81 | 128 | 20.0 | 30.0 | 0.00 | 0.00 | 0.00 | 81 | 1012.1 |
| 20260504041121 | 81 | 136 | 28.0 | 33.0 | 0.00 | 0.00 | 0.00 | 81 | 1012.3 |
| 20260504040618 | 81 | 103 | 24.0 | 38.0 | 0.00 | 0.00 | 0.00 | 80 | 1012.2 |
| 20260504040115 | 81 | 130 | 20.0 | 30.0 | 0.00 | 0.00 | 0.00 | 80 | 1012.4 |
| 20260504035611 | 80 | 98 | 19.0 | 25.0 | 0.00 | 0.00 | 0.00 | 81 | 1012.1 |
| 20260504035108 | 81 | 122 | 30.0 | 43.0 | 0.00 | 0.00 | 0.00 | 80 | 1012.2 |
| 20260504034606 | 81 | 116 | 28.0 | 38.0 | 0.00 | 0.00 | 0.00 | 80 | 1012.5 |
| 20260504034102 | 81 | 104 | 20.0 | 35.0 | 0.00 | 0.00 | 0.00 | 81 | 1012.5 |
| 20260504033600 | 81 | 121 | 17.0 | 30.0 | 0.00 | 0.00 | 0.00 | 80 | 1012.3 |
| 20260504033057 | 81 | 129 | 23.0 | 45.0 | 0.00 | 0.00 | 0.00 | 80 | 1012.3 |
| 20260504032554 | 81 | 115 | 23.0 | 35.0 | 0.00 | 0.00 | 0.00 | 80 | 1012.4 |